Probability
0 0 0 0 0 0 1 2 2 1 1 1 1 0 0 1 2 3 2 1 0 0 1 2 1 0 0 0 0 0 1 2 3 2 2 1 3 5 5 5 4 3 3
1 1 1 0 0 0 0 1 1 0 0 0 0 0 0 1 2 2 1 1 0 0 1 1 1 0 0 0 0 0 0 1 2 1 1 1 3 4 4 4 3 3 3
2 2 1 0 0 0 0 0 0 0 0 0 0 0 1 2 2 1 1 0 0 0 0 0 0 0 0 0 0 0 0 0 0 0 0 1 2 4 3 2 2 3 2
3 3 2 1 0 0 0 0 0 0 0 0 0 0 1 2 2 1 0 0 0 0 0 0 0 0 1 1 0 0 0 0 0 0 0 1 2 3 2 1 1 1 1
3 3 3 3 1 0 0 0 0 0 0 0 0 0 0 1 1 1 0 0 0 0 0 0 0 1 2 2 1 0 0 0 0 0 0 0 1 1 1 0 0 0 0
3 3 3 3 1 0 0 1 1 0 0 0 0 0 0 0 0 0 0 0 0 0 0 0 0 1 2 2 1 0 0 0 0 0 0 0 0 0 0 0 0 0 0
3 3 3 3 1 1 1 1 1 0 0 0 1 1 1 1 1 1 1 1 1 0 0 0 0 1 2 2 1 0 0 0 0 0 0 0 0 0 0 0 0 0 0
3 3 3 3 3 2 1 1 1 1 1 1 2 2 2 2 2 3 3 3 2 1 0 0 0 0 1 1 1 1 0 0 0 0 0 0 0 0 0 0 0 0 0
3 3 3 3 3 2 1 2 3 3 2 3 3 3 3 3 4 4 4 4 3 1 1 1 0 0 0 0 1 1 1 0 0 0 0 0 0 0 0 0 0 0 0
1 2 3 3 2 1 1 4 4 4 3 3 3 3 3 4 4 4 4 3 3 3 2 2 1 0 0 0 1 1 1 1 0 0 0 0 0 0 0 0 0 0 0
0 1 2 2 1 0 1 2 3 3 3 3 3 3 3 3 4 3 3 3 3 3 3 3 2 1 0 0 1 2 2 1 0 0 0 0 0 0 0 0 0 0 0
0 0 1 1 0 0 0 1 1 2 2 3 3 3 3 3 3 3 3 3 3 3 3 3 3 2 1 0 1 1 1 0 0 0 0 0 1 1 1 1 0 0 1
0 1 2 2 1 0 0 0 0 1 1 1 2 2 2 1 1 3 3 3 3 3 3 3 3 3 2 1 1 1 0 0 0 0 0 1 2 2 2 2 1 1 1
1 1 2 2 1 0 0 0 0 0 0 0 1 1 1 1 1 2 3 3 3 3 3 3 3 3 3 3 2 1 0 0 0 0 0 1 2 3 3 3 2 1 1
4 2 2 2 1 0 0 0 0 0 0 0 0 0 1 1 1 1 3 3 3 3 3 3 3 3 3 3 3 1 1 0 0 0 0 1 2 3 3 3 3 2 1
4 2 1 1 1 0 0 0 0 0 1 1 1 0 1 1 1 1 3 3 3 3 3 3 3 3 3 3 3 2 1 0 0 0 0 1 2 3 3 3 3 3 3
2 1 0 1 1 1 1 1 1 1 1 2 1 1 1 2 2 3 3 3 3 3 3 3 3 3 3 3 3 2 1 0 0 0 1 1 2 2 2 3 3 3 3
1 1 1 1 2 3 3 2 1 1 1 1 1 1 2 3 3 3 3 3 3 3 3 3 3 3 3 3 3 2 1 1 2 2 2 2 3 3 3 3 3 3 3
2 2 2 3 5 6 5 2 1 1 0 0 0 1 1 2 3 2 2 2 2 3 3 3 3 3 3 3 3 2 2 2 3 3 3 4 3 3 3 3 3 3 3
8 6 4 5 6 6 5 3 1 1 1 1 0 0 1 2 5 4 2 2 2 3 3 3 3 3 3 3 3 3 2 2 3 3 3 4 4 3 2 1 1 2 2
12 10 8 7 8 7 5 4 2 2 2 2 1 0 1 3 7 7 5 3 2 2 3 3 3 3 3 3 3 3 2 1 2 2 3 4 4 2 1 0 0 1 1
13 12 10 11 13 11 8 6 5 4 3 2 1 0 1 4 7 8 6 5 3 2 2 3 4 4 3 3 3 3 2 1 1 1 2 4 3 1 0 0 0 0 0
12 12 11 12 15 14 11 9 8 5 3 2 1 1 1 3 6 7 7 6 5 3 2 3 5 5 4 3 3 3 3 3 2 1 1 1 1 0 0 0 0 0 0
12 13 12 11 13 13 12 10 9 7 5 4 4 3 3 4 5 7 8 8 7 6 5 5 7 7 6 5 4 3 3 3 3 2 1 0 0 0 0 0 0 0 0
14 15 15 13 13 13 11 9 9 8 7 7 6 5 4 4 6 8 8 8 8 8 8 8 9 9 8 7 5 4 4 3 3 3 2 1 0 0 0 0 0 0 0
15 18 19 17 15 13 11 9 8 8 7 8 8 7 5 4 5 7 8 9 9 9 9 10 10 10 9 7 6 5 5 4 3 3 2 1 0 0 0 0 0 0 0
Wind_Speed
1 2 6 8 10 11 12 12 13 13 14 14 15 16 17 18 18 18 18 18 18 17 17 17 17 17 16 17 17 16 15 15 15 15 14 14 13 12 13 13 12 9 13
4 3 8 9 10 11 11 12 12 13 13 14 15 16 16 17 18 17 17 17 18 17 17 17 16 16 16 16 15 14 14 14 13 13 13 12 12 11 12 13 12 8 13
5 4 7 10 11 11 11 12 12 12 13 14 15 15 15 16 17 17 16 17 17 17 16 16 15 15 15 15 14 14 13 13 13 13 11 6 7 10 11 13 12 12 12
6 4 6 10 11 11 11 11 11 12 12 13 14 14 14 15 16 16 15 16 16 16 15 15 15 14 14 13 13 12 12 12 11 11 5 4 5 10 11 12 12 12 12
6 4 6 11 11 12 11 11 11 11 11 12 13 13 14 14 15 15 15 15 15 14 14 14 14 14 13 12 11 11 11 10 10 7 4 3 4 9 11 12 12 11 11
6 4 6 11 11 11 11 11 11 11 11 11 12 13 13 13 14 14 14 14 14 14 14 13 13 13 12 11 10 9 9 9 7 4 4 4 4 9 11 11 11 11 10
6 4 6 11 11 11 11 10 10 10 11 11 12 12 12 12 13 13 13 14 13 13 13 13 12 12 11 10 9 8 7 7 5 4 4 4 5 9 10 10 10 10 10
8 5 5 10 11 11 10 10 10 10 10 10 11 11 11 11 13 13 13 13 13 13 13 12 12 11 10 9 8 7 6 5 6 5 4 4 7 9 10 10 10 9 9
7 5 4 5 7 10 10 9 9 9 9 9 10 10 11 11 12 12 12 12 12 12 12 12 11 10 9 8 7 6 5 5 4 3 5 4 7 9 9 9 10 10 9
6 5 4 3 3 3 5 8 8 8 8 8 9 10 10 11 11 12 11 11 12 12 11 11 10 9 8 7 7 6 5 4 2 3 2 4 8 9 9 9 9 9 9
6 4 4 4 3 3 3 6 6 6 6 6 6 9 8 4 5 6 9 11 11 11 11 10 9 8 7 6 6 5 3 2 2 2 2 5 8 9 9 9 9 9 9
5 5 4 4 3 3 4 3 2 2 2 2 2 3 3 3 3 5 8 11 11 10 10 9 8 6 4 2 3 3 1 2 2 2 3 7 8 8 8 8 9 9 9
6 5 4 4 4 4 2 3 1 1 1 2 2 3 3 3 2 3 3 4 5 6 4 4 3 2 2 2 2 1 1 1 1 1 3 6 7 7 8 8 8 8 8
6 6 5 4 4 3 3 3 2 2 2 2 2 3 3 2 2 2 2 3 3 2 3 2 1 2 2 2 2 2 2 1 2 1 2 7 7 7 7 7 7 7 7
6 5 5 5 4 4 3 2 3 2 3 3 2 3 4 3 3 3 3 3 3 3 3 3 2 2 2 2 2 2 2 2 3 2 2 6 7 6 6 6 6 6 6
7 6 5 5 5 4 3 2 2 2 3 3 3 3 4 3 4 4 3 3 3 3 3 3 3 3 2 1 1 2 2 3 3 3 2 3 6 6 5 5 5 5 5
7 6 6 5 5 4 3 3 3 2 3 3 2 3 4 4 4 4 3 3 3 3 3 3 3 2 2 2 2 1 2 2 3 3 2 1 2 4 5 5 4 4 5
7 6 6 6 6 4 3 3 2 2 3 3 2 3 4 4 4 4 3 3 3 3 3 3 2 2 2 2 2 1 1 2 3 3 2 2 1 1 2 3 3 3 3
8 7 6 5 5 4 4 3 3 3 2 2 2 2 3 4 4 4 3 2 3 3 2 3 2 2 2 2 2 2 1 1 2 3 2 2 2 1 1 2 3 2 2
7 7 6 5 5 4 3 3 2 2 1 2 2 2 3 3 4 3 3 3 3 3 2 2 3 2 2 2 2 2 1 1 1 1 2 2 2 2 1 1 1 2 2
7 7 6 6 5 4 3 3 2 2 1 1 2 3 3 3 3 3 3 3 3 3 3 3 3 3 2 2 3 2 2 2 1 1 1 1 2 2 2 2 1 1 1
8 7 7 6 6 5 4 3 2 3 2 2 1 2 3 3 3 4 4 3 3 3 3 3 3 2 1 2 3 2 1 2 3 2 1 1 1 1 1 2 1 1 1
9 9 8 7 6 5 4 3 2 2 2 2 1 1 1 3 3 3 4 3 3 3 3 3 4 4 3 1 2 4 3 2 0 2 1 1 1 1 1 1 1 1 1
10 9 7 7 6 5 5 4 4 3 3 2 2 1 1 2 3 3 3 4 3 3 3 3 3 3 4 2 1 1 3 4 3 1 2 1 0 1 1 1 1 1 1
10 9 8 7 6 5 5 5 5 3 3 2 2 2 1 1 1 2 2 2 3 2 3 3 3 3 3 3 2 1 1 1 2 3 1 1 1 1 1 1 1 0 0
8 8 7 7 6 6 6 6 6 6 4 4 3 2 1 1 1 1 3 2 2 2 3 3 2 3 2 2 2 2 2 2 2 3 3 2 1 1 1 0 0 1 0
Wind_Direction
162 145 110 101 97 95 94 93 92 92 93 96 102 105 108 113 114 116 118 122 123 121 120 123 123 122 122 122 123 124 122 121 120 122 123 122 121 120 121 120 118 116 118
147 137 116 109 104 100 99 99 98 96 97 99 105 108 110 114 116 117 118 121 122 121 120 122 123 124 126 125 125 124 123 124 123 123 122 120 121 121 123 121 120 123 124
129 130 122 115 110 106 102 102 103 101 101 104 108 111 114 117 118 119 121 122 123 123 123 125 126 128 128 127 127 127 124 123 124 123 117 109 118 122 125 125 125 126 126
128 128 122 118 115 111 106 104 104 105 105 108 112 114 117 120 120 123 124 124 125 126 128 129 129 131 129 128 127 127 126 126 125 124 116 117 123 126 128 128 128 128 128
123 125 130 124 119 115 110 108 107 108 109 113 118 119 119 124 125 127 127 127 128 128 129 129 130 131 130 130 130 127 126 128 128 120 114 116 120 131 132 132 132 132 131
128 131 134 127 123 118 114 111 110 110 113 117 122 124 124 127 130 130 130 130 131 131 131 131 132 132 131 130 129 126 123 122 121 112 111 118 125 135 135 137 136 135 136
136 138 138 131 126 122 117 114 113 114 115 121 126 128 129 131 135 133 133 134 135 134 133 133 135 136 136 134 133 130 128 125 120 119 123 127 137 139 140 141 141 142 145
141 141 137 136 132 127 122 118 116 117 119 123 130 134 134 135 140 136 137 138 140 138 137 137 138 140 141 140 137 134 129 118 117 124 129 138 147 146 148 148 149 149 153
138 138 135 140 135 132 128 125 124 123 125 128 133 140 141 141 140 141 143 144 143 143 143 143 144 145 145 144 139 133 124 113 114 131 144 147 154 155 157 157 160 162 164
128 136 140 136 134 138 136 135 135 132 130 132 138 144 146 147 148 150 151 151 151 150 150 150 151 151 149 148 142 137 126 110 110 134 141 160 164 165 167 168 169 170 171
126 136 141 141 142 146 145 143 139 137 137 136 137 146 145 142 146 153 157 158 158 158 158 159 160 159 156 149 146 141 127 115 125 134 149 167 171 173 173 174 176 178 178
145 151 152 152 153 149 151 137 134 134 133 131 129 142 141 143 151 160 164 166 164 162 162 167 170 167 161 133 139 139 112 128 147 154 165 173 175 174 173 176 179 181 183
156 150 151 155 154 154 145 132 130 117 130 134 136 141 138 138 152 161 155 164 162 161 157 162 162 154 148 140 134 141 151 144 147 168 166 167 172 172 173 177 179 182 184
143 152 154 151 148 147 134 138 152 157 149 144 149 147 142 140 147 151 147 145 145 144 145 146 138 144 147 148 153 156 154 146 142 147 171 168 171 169 171 173 176 182 182
139 143 147 144 140 142 133 147 143 154 150 148 143 147 145 143 143 141 141 144 149 144 145 146 149 147 147 153 155 150 149 150 143 143 163 168 164 161 168 168 171 176 178
150 153 149 144 141 139 139 142 144 148 145 137 138 146 143 142 137 131 130 136 141 145 148 150 151 144 140 125 117 114 118 126 121 125 128 155 155 158 165 168 178 183 184
157 153 150 152 143 142 143 144 134 141 135 135 143 141 134 135 134 134 132 135 143 146 145 135 130 126 132 124 106 101 112 129 133 133 137 131 157 166 168 173 177 183 193
155 150 154 153 143 144 139 135 132 133 130 139 145 141 136 135 137 129 130 139 141 135 132 129 127 123 120 121 118 114 112 124 135 142 144 143 147 172 186 175 173 178 193
156 151 149 144 143 140 134 132 127 121 126 138 139 139 139 140 140 136 142 144 138 128 133 148 133 134 130 128 121 105 95 117 139 148 146 152 158 147 152 173 179 183 205
156 151 149 146 147 138 126 111 100 93 107 117 131 145 147 148 145 137 140 142 140 131 133 137 132 123 133 137 117 87 69 90 106 133 158 156 149 154 165 184 213 225 227
154 153 153 150 151 140 129 132 134 139 139 128 142 147 146 149 148 142 144 139 141 145 156 148 131 127 128 128 103 64 27 33 56 49 147 142 158 184 167 172 193 221 247
163 163 161 158 157 156 157 155 154 148 147 145 135 130 142 151 155 150 143 141 143 140 142 145 144 140 159 146 131 114 52 8 6 13 54 123 153 161 157 182 197 204 229
169 173 172 169 163 160 155 136 117 91 73 73 98 119 147 146 142 142 145 147 147 148 161 162 159 155 167 193 164 147 153 190 297 356 9 59 117 131 155 167 180 208 207
178 175 168 163 162 161 151 139 139 143 153 179 177 161 156 148 143 147 145 150 154 157 164 174 167 163 160 186 209 182 167 157 153 152 340 334 305 155 196 191 196 210 215
175 171 167 161 158 156 149 150 150 157 170 169 155 145 151 143 137 144 147 154 159 163 169 175 168 158 164 177 184 171 145 143 143 149 197 287 330 296 226 205 184 190 207
170 168 165 160 162 163 161 161 164 168 167 160 163 162 168 158 139 163 152 158 166 173 173 177 173 158 162 169 180 172 162 159 170 157 173 203 230 273 258 227 201 215 196